World > North America > United States > Ohio

Richwood, Ohio Regional Weather

Lat: 40.43N, Lon: 83.3W
Wx Zone: OHZ045Web Search

Helpful Tip: You can add this page to Bookmarks by pressing the Ctrl key & d key at the same time. Mac users press command & d.

Feedback


°F Click to change Richwood hourly weather to Imperial units.Click to change Richwood hourly weather to Metric units. °C
Richwood Weather Map
UTC Time: 5/6/2021, 03:48
Your Time:

Richwood, OH Regional Weather

Expires:202105060400;;663606
ASUS41 KCLE 060312
RWRCLE
OHIO REGIONAL WEATHER ROUNDUP
NATIONAL WEATHER SERVICE WILMINGTON, OH
1100 PM EDT WED MAY 05 2021

NOTE: "FAIR" INDICATES FEW OR NO CLOUDS BELOW 12,000 FEET WITH NO
SIGNIFICANT WEATHER AND/OR OBSTRUCTIONS TO VISIBILITY.


OHZ036-037-039>041-045>050-054>059-063>069-073>076-082>088-060400-
  CENTRAL AND SOUTHEAST OHIO
  
CITY           SKY/WX    TMP DP  RH WIND       PRES   REMARKS
COLUMBUS       FAIR      44  39  82 CALM      30.13R                  
OSU AIRPORT    FAIR      44  37  76 CALM      30.13R                  
BOLTON FIELD     N/A     44  39  82 CALM      30.14S                  
RICKENBACK AFB FAIR      45  37  75 CALM      30.13S                  
NEWARK         FAIR      40  38  93 CALM      30.13R                  
MARION         FAIR      43  37  79 CALM      30.14R                  
LANCASTER      FAIR      41  38  89 CALM      30.14R                  
ZANESVILLE     FAIR      41  38  89 CALM      30.13R                  
NEW PHILLY     CLOUDY    43  41  93 CALM      30.13R                  
$$
  

SKY/WX - Weather  TMP - Temperature  DP - Dew Point  RH - Relative Humidity
WIND - Wind Direction/Speed PRES - Barometric Pressure VSB - Visibility
WCI - Wind Chill Index E13G22 Wind - East Wind 13 mph/Gusts of 22 mph